Home   Weather   Feira de Santana   Past weeks
Flag for Brazil

Past Weather in Feira de Santana, Bahia, Brazil — Yesterday and Last 2 Weeks

Now
73 °F

Passing clouds.


Feels Like: 70 °F
Forecast: 75 / 66 °F
Wind: 10 mph from Southeast

Location: Salvador Aeroporto

Current Time: Jul 21, 2019 at 4:41:07 am

Latest Report: Jul 21, 2019 at 4:00 am


Visibility: N/A

Pressure: 30.07 "Hg

Humidity: 94%

Dew Point: 72 °F

Location of Feira de SantanaLocation

Past Weather in Feira de Santana — Graph

°F

Feira de Santana Temperature Yesterday

Maximum temperature yesterday: 79 °F (at 9:00 am)
Minimum temperature yesterday: 72 °F (at 3:00 pm)
Average temperature yesterday: 75 °F

High & Low Weather Summary for the Past Weeks

 TemperatureHumidityPressure
High86 °F (Jul 6, 1:00 pm)100% (Jul 6, 6:00 am)30.21 "Hg (Jul 6, 6:00 am)
Low68 °F (Jul 16, 5:00 am)48% (Jul 16, 11:00 am)29.95 "Hg (Jul 6, 4:00 am)
Average77 °F78%30.07 "Hg
* Reported Jul 6 3:00 am — Jul 21 3:00 am, Feira de Santana. Weather by CustomWeather, © 2019

Note: Actual official high and low records may vary slightly from our data, if they occured in-between our weather recording intervals... More about our weather records

Advertising

Feira de Santana Weather History for the Previous 24 Hours

Scroll right to see more
 ConditionsComfort  
Time TempWeatherWind HumidityBarometerVisibility
3:00 am
Sun, Jul 21
72 °FLight rain. Passing clouds.14 mph94%30.09 "Hg4 mi
2:00 am73 °FPassing clouds.16 mph89%30.09 "HgN/A
1:00 am75 °FPassing clouds.13 mph83%30.09 "HgN/A
12:00 am73 °FPartly cloudy.6 mph89%30.12 "HgN/A
11:00 pm
Sat, Jul 20
77 °FPartly cloudy.13 mph74%30.12 "HgN/A
10:00 pm77 °FMostly cloudy.15 mph69%30.12 "HgN/A
9:00 pm77 °FMostly cloudy.14 mph74%30.12 "HgN/A
8:00 pm77 °FMostly cloudy.15 mph74%30.12 "Hg5 mi
7:00 pm73 °FPassing clouds.9 mph100%N/A5 mi
6:27 pm72 °FPassing clouds.14 mph100%30.09 "Hg4 mi
6:00 pm72 °FRain. Fog.15 mph94%30.09 "Hg2 mi
5:00 pm73 °FBroken clouds.15 mph94%30.09 "HgN/A
4:00 pm73 °FScattered showers. Partly sunny.12 mph94%N/A5 mi
3:00 pm72 °FScattered clouds.12 mph94%30.09 "Hg5 mi
2:00 pm77 °FScattered showers. Scattered clouds.16 mph83%N/AN/A
1:00 pm79 °FScattered clouds.9 mph79%30.12 "HgN/A
12:00 pm77 °FScattered showers. Partly sunny.10 mph83%30.12 "Hg5 mi
11:00 am79 °FScattered showers. Scattered clouds.13 mph79%30.15 "HgN/A
10:00 am77 °FScattered showers. Scattered clouds.6 mph79%30.15 "Hg5 mi
9:00 am79 °FScattered clouds.12 mph74%30.15 "HgN/A
8:00 am77 °FScattered clouds.12 mph74%30.15 "HgN/A
7:00 am77 °FScattered clouds.10 mph74%30.12 "HgN/A
6:00 am75 °FScattered clouds.10 mph78%30.12 "HgN/A
5:00 am75 °FPassing clouds.13 mph74%30.12 "HgN/A
4:00 am75 °FPassing clouds.14 mph78%30.09 "HgN/A
Weather by CustomWeather, © 2019

See weather overview